SL-14 DEB

Satellite information

Favourite Embed

Satellite Type and Status

DEBRISIN ORBIT

Key statistics

Satellite SL-14 DEB at a glance.

Uptime

12502

Days in orbit

Revolutions

≈ 12.5

Per day

Orbit

LEO

Low Earth Orbit

Inclination

82.7

Latest

Satellite identification and parameters

Extended collection of information and parameters for SL-14 DEB.

Object identification

Identified? True

Debris? True

Object name: SL-14 DEB

International designator: 1991-068AD

Object number (NORAD): 26018

Object ID (CCSDS): 26018

Country: COMMONWEALTH OF INDEPENDENT STATES (CIS)

Current information (Y/N): Y

RCS size: SMALL

Orbital parameters

Period: 115.627 minutes

Inclination: 82.7152 deg

SMA: 7862.01 km

Apoapsis: 1498.623 km

Periapsis: 1469.126 km

RAAN: 49.1823 deg

Eccentricy: 0.0018759

Argument of periapsis: 191.5524 deg

Mean anomaly: 187.2555 deg

Mean motion: 12.45381497 rev/day

Mean motion (dot): 0.0000004 rev/day2

B* drag term: 0.00020492 1/REarth

Two-line elements (TLE)

Creation date: Dec. 19, 2025, 9:26 p.m.

Reference frame: TEME

Reference center: EARTH

Epoch: Dec. 19, 2025, 10:36 a.m. UTC

TLE line 0: 0 SL-14 DEB

TLE line 1: 1 26018U 91068AD 25353.44188881 .00000040 00000-0 20492-3 0 9995

TLE line 2: 2 26018 82.7152 49.1823 0018759 191.5524 187.2555 12.45381497559699

Live tracking on map

Real-time ground track for satellite SL-14 DEB.

In-orbit conjunctions

A list of the most updated potential collisions computed for object SL-14 DEB.

Target Orbit TCA Probability of collision Miss distance Type
COSMOS 1478 LEO 2025-02-27 07:19:26 0.0003381821 230.0 (m) PAYLOAD

Associated space launch

Second generation store-dump military communications satellite

SL-14 DEB was lifted into orbit during the mission ‘Tsiklon-3 | Strela-3 67 to 72’, on board a Tsiklon-3 space rocket.

The launch took place on Sept. 28, 1991, 7:05 a.m. from 32/2.

For more information about the launch, click the button.

Launch to space Tsiklon-3 | Strela-3 67 to 72
Tsiklon-3 | Strela-3 67 to 72

Agency: N/A

Status: Launch Successful

Launch date: Sept. 28, 1991, 7:05 a.m. UTC

Rocket: Tsiklon-3

Launch pad: 32/2

Location: Plesetsk Cosmodrome, Russian Federation

...

Latest news about this satellite

There are no fresh news available about this satellite. Check back as we update our databases every day.


Newsletter sign-up

Weekly statistics, charts and insights to help you stay on top of the space industry.